Time,TemperatureF,DewpointF,PressureIn,WindDirection,WindDirectionDegrees,WindSpeedMPH,WindSpeedGustMPH,Humidity,HourlyPrecipIn,Conditions,Clouds,dailyrainin,SoftwareType,DateUTC
2013-01-19 00:01:00,28.5,23.2,30.46,WSW,256,2.2,51.0,80,7.87,,,0.00,VWS V13.01,2013-01-19 05:01:00,
2013-01-19 00:02:00,28.6,23.2,30.46,SE,138,0.7,51.0,80,7.87,,,0.00,VWS V13.01,2013-01-19 05:02:00,
2013-01-19 00:07:00,28.7,23.4,30.45,South,188,2.9,51.0,80,7.87,,,0.00,VWS V13.01,2013-01-19 05:07:00,
2013-01-19 00:12:00,28.6,23.2,30.45,SSE,152,0.0,51.0,80,7.87,,,0.00,VWS V13.01,2013-01-19 05:12:00,
2013-01-19 00:17:00,28.8,23.5,30.44,West,260,2.9,51.0,80,7.87,,,0.00,VWS V13.01,2013-01-19 05:17:00,
2013-01-19 00:22:00,28.9,23.5,30.44,WSW,255,5.7,51.0,80,7.87,,,0.00,VWS V13.01,2013-01-19 05:22:00,
2013-01-19 00:27:00,29.1,23.6,30.44,SSW,204,2.7,51.0,80,7.87,,,0.00,VWS V13.01,2013-01-19 05:27:00,
2013-01-19 00:32:00,29.0,23.5,30.44,WSW,243,1.7,51.0,80,7.87,,,0.00,VWS V13.01,2013-01-19 05:32:00,
2013-01-19 00:37:00,29.4,23.9,30.45,WNW,292,0.9,51.0,80,7.87,,,0.00,VWS V13.01,2013-01-19 05:37:00,
2013-01-19 00:42:00,29.5,23.9,30.45,WSW,249,2.8,51.0,79,7.87,,,0.00,VWS V13.01,2013-01-19 05:42:00,
2013-01-19 00:47:00,29.3,23.6,30.45,West,269,1.4,51.0,79,7.87,,,0.00,VWS V13.01,2013-01-19 05:47:00,
2013-01-19 00:52:00,29.4,23.7,30.45,NW,304,2.9,51.0,79,7.87,,,0.00,VWS V13.01,2013-01-19 05:52:00,
2013-01-19 00:57:00,29.3,23.5,30.45,WNW,301,1.2,51.0,79,7.87,,,0.00,VWS V13.01,2013-01-19 05:57:00,
2013-01-19 01:02:00,29.6,23.8,30.45,West,280,3.0,51.0,79,7.87,,,0.00,VWS V13.01,2013-01-19 06:02:00,
2013-01-19 01:07:00,29.2,23.5,30.45,West,278,3.9,51.0,79,7.87,,,0.00,VWS V13.01,2013-01-19 06:07:00,
2013-01-19 01:12:00,29.4,23.6,30.45,NW,319,2.9,51.0,79,7.87,,,0.00,VWS V13.01,2013-01-19 06:12:00,
2013-01-19 01:17:00,29.2,23.4,30.45,West,277,1.8,51.0,79,7.87,,,0.00,VWS V13.01,2013-01-19 06:17:00,
2013-01-19 01:22:00,29.4,23.6,30.45,West,271,2.7,51.0,79,7.87,,,0.00,VWS V13.01,2013-01-19 06:22:00,
2013-01-19 01:27:00,29.3,23.5,30.45,SW,215,3.7,51.0,79,7.87,,,0.00,VWS V13.01,2013-01-19 06:27:00,
2013-01-19 01:32:00,29.5,23.7,30.45,WNW,294,2.1,51.0,79,7.87,,,0.00,VWS V13.01,2013-01-19 06:32:00,
2013-01-19 01:37:00,29.4,23.7,30.44,WSW,250,2.1,51.0,79,7.87,,,0.00,VWS V13.01,2013-01-19 06:37:00,
2013-01-19 01:42:00,29.4,23.7,30.44,WSW,256,4.9,51.0,79,7.87,,,0.00,VWS V13.01,2013-01-19 06:42:00,
2013-01-19 01:47:00,29.6,24.0,30.44,West,270,4.3,51.0,79,7.87,,,0.00,VWS V13.01,2013-01-19 06:47:00,
2013-01-19 01:52:00,29.6,24.0,30.44,SW,224,5.7,51.0,80,7.87,,,0.00,VWS V13.01,2013-01-19 06:52:00,
2013-01-19 01:57:00,29.8,24.3,30.44,WNW,301,1.9,51.0,80,7.87,,,0.00,VWS V13.01,2013-01-19 06:57:00,
2013-01-19 02:02:00,29.8,24.3,30.44,West,267,5.2,51.0,80,7.87,,,0.00,VWS V13.01,2013-01-19 07:02:00,
2013-01-19 02:07:00,29.7,24.3,30.44,West,281,4.6,51.0,80,7.87,,,0.00,VWS V13.01,2013-01-19 07:07:00,
2013-01-19 02:12:00,29.7,24.4,30.44,West,263,1.6,51.0,80,7.87,,,0.00,VWS V13.01,2013-01-19 07:12:00,
2013-01-19 02:17:00,30.0,24.8,30.44,WSW,255,1.3,51.0,81,7.87,,,0.00,VWS V13.01,2013-01-19 07:17:00,
2013-01-19 02:22:00,30.1,24.9,30.44,West,264,5.0,51.0,81,7.87,,,0.00,VWS V13.01,2013-01-19 07:22:00,
2013-01-19 02:27:00,30.0,24.8,30.44,West,267,4.2,51.0,81,7.87,,,0.00,VWS V13.01,2013-01-19 07:27:00,
2013-01-19 02:32:00,30.3,25.1,30.43,SW,235,2.8,51.0,81,7.87,,,0.00,VWS V13.01,2013-01-19 07:32:00,
2013-01-19 02:38:00,30.6,25.4,30.43,SW,214,1.9,51.0,81,7.87,,,0.00,VWS V13.01,2013-01-19 07:38:00,
2013-01-19 02:43:00,30.5,25.2,30.44,West,263,3.5,51.0,80,7.87,,,0.00,VWS V13.01,2013-01-19 07:43:00,
2013-01-19 02:48:00,30.6,25.4,30.43,WSW,245,0.0,51.0,81,7.87,,,0.00,VWS V13.01,2013-01-19 07:48:00,
2013-01-19 02:53:00,30.6,25.5,30.43,WSW,255,3.4,51.0,81,7.87,,,0.00,VWS V13.01,2013-01-19 07:53:00,
2013-01-19 02:58:00,30.7,25.8,30.42,West,262,2.8,51.0,82,7.87,,,0.00,VWS V13.01,2013-01-19 07:58:00,
2013-01-19 03:03:00,30.8,26.0,30.42,WSW,252,3.3,51.0,82,7.87,,,0.00,VWS V13.01,2013-01-19 08:03:00,
2013-01-19 03:08:00,30.9,26.2,30.42,WSW,257,4.3,51.0,82,7.87,,,0.00,VWS V13.01,2013-01-19 08:08:00,
2013-01-19 03:13:00,31.0,26.4,30.41,WNW,298,3.0,51.0,83,7.87,,,0.00,VWS V13.01,2013-01-19 08:13:00,
2013-01-19 03:18:00,31.0,26.5,30.41,WSW,249,8.2,51.0,83,7.87,,,0.00,VWS V13.01,2013-01-19 08:18:00,
2013-01-19 03:23:00,31.0,26.6,30.41,West,263,0.0,51.0,83,7.87,,,0.00,VWS V13.01,2013-01-19 08:23:00,
2013-01-19 03:28:00,31.0,26.7,30.41,WNW,301,3.7,51.0,84,7.87,,,0.00,VWS V13.01,2013-01-19 08:28:00,
2013-01-19 03:33:00,31.1,26.8,30.41,WSW,248,4.3,51.0,84,7.87,,,0.00,VWS V13.01,2013-01-19 08:33:00,
2013-01-19 03:38:00,31.1,26.8,30.41,WNW,295,5.2,51.0,84,7.87,,,0.00,VWS V13.01,2013-01-19 08:38:00,
2013-01-19 03:43:00,31.4,27.1,30.40,West,276,4.2,51.0,84,7.87,,,0.00,VWS V13.01,2013-01-19 08:43:00,
2013-01-19 03:48:00,31.5,27.2,30.40,West,274,5.4,51.0,84,7.87,,,0.00,VWS V13.01,2013-01-19 08:48:00,
2013-01-19 03:53:00,31.4,27.2,30.40,WNW,294,4.8,51.0,84,7.87,,,0.00,VWS V13.01,2013-01-19 08:53:00,
2013-01-19 03:58:00,31.5,27.3,30.39,NW,319,2.1,51.0,84,7.87,,,0.00,VWS V13.01,2013-01-19 08:58:00,
2013-01-19 04:03:00,31.7,27.5,30.39,South,187,3.0,51.0,84,7.87,,,0.00,VWS V13.01,2013-01-19 09:03:00,
2013-01-19 04:08:00,31.7,27.3,30.39,WSW,243,8.5,51.0,84,7.87,,,0.00,VWS V13.01,2013-01-19 09:08:00,
2013-01-19 04:13:00,31.7,27.2,30.38,WNW,284,1.6,51.0,83,7.87,,,0.00,VWS V13.01,2013-01-19 09:13:00,
2013-01-19 04:18:00,31.8,27.1,30.38,West,274,5.7,51.0,83,7.87,,,0.00,VWS V13.01,2013-01-19 09:18:00,
2013-01-19 04:23:00,31.9,27.1,30.38,WNW,285,7.0,51.0,82,7.87,,,0.00,VWS V13.01,2013-01-19 09:23:00,
2013-01-19 04:28:00,32.0,27.0,30.38,WNW,285,3.5,51.0,82,7.87,,,0.00,VWS V13.01,2013-01-19 09:28:00,
2013-01-19 04:33:00,32.3,27.1,30.37,NW,319,4.8,51.0,81,7.87,,,0.00,VWS V13.01,2013-01-19 09:33:00,
2013-01-19 04:38:00,32.3,27.0,30.37,NW,312,2.2,51.0,81,7.87,,,0.00,VWS V13.01,2013-01-19 09:38:00,
2013-01-19 04:43:00,32.4,27.1,30.37,SW,233,3.2,51.0,80,7.87,,,0.00,VWS V13.01,2013-01-19 09:43:00,
2013-01-19 04:48:00,32.4,27.0,30.37,West,277,6.3,51.0,80,7.87,,,0.00,VWS V13.01,2013-01-19 09:48:00,
2013-01-19 04:53:00,32.6,27.2,30.37,WSW,248,4.5,51.0,80,7.87,,,0.00,VWS V13.01,2013-01-19 09:53:00,
2013-01-19 04:58:00,32.6,27.3,30.37,WSW,256,5.2,51.0,80,7.87,,,0.00,VWS V13.01,2013-01-19 09:58:00,
2013-01-19 05:03:00,32.2,26.9,30.37,WNW,292,5.5,51.0,81,7.87,,,0.00,VWS V13.01,2013-01-19 10:03:00,
2013-01-19 05:07:00,32.4,27.2,30.36,SSW,193,3.2,51.0,81,7.87,,,0.00,VWS V13.01,2013-01-19 10:07:00,
2013-01-19 05:12:00,32.4,27.3,30.36,West,274,2.0,51.0,81,7.87,,,0.00,VWS V13.01,2013-01-19 10:12:00,
2013-01-19 05:17:00,32.5,27.4,30.36,West,274,5.2,51.0,81,7.87,,,0.00,VWS V13.01,2013-01-19 10:17:00,
2013-01-19 05:22:00,32.7,27.6,30.36,West,280,5.8,51.0,81,7.87,,,0.00,VWS V13.01,2013-01-19 10:22:00,
2013-01-19 05:27:00,32.5,27.5,30.36,West,280,9.6,51.0,82,7.87,,,0.00,VWS V13.01,2013-01-19 10:27:00,
2013-01-19 05:32:00,32.6,27.7,30.36,NW,308,5.0,51.0,82,7.87,,,0.00,VWS V13.01,2013-01-19 10:32:00,
2013-01-19 05:37:00,32.6,27.8,30.37,West,271,4.0,51.0,82,7.87,,,0.00,VWS V13.01,2013-01-19 10:37:00,
2013-01-19 05:42:00,32.7,28.0,30.36,NW,326,5.5,51.0,83,7.87,,,0.00,VWS V13.01,2013-01-19 10:42:00,
2013-01-19 05:47:00,32.7,28.1,30.37,West,270,7.7,51.0,83,7.87,,,0.00,VWS V13.01,2013-01-19 10:47:00,
2013-01-19 05:52:00,32.9,28.4,30.37,West,260,5.5,51.0,83,7.87,,,0.00,VWS V13.01,2013-01-19 10:52:00,
2013-01-19 05:57:00,33.0,28.7,30.36,SW,229,5.5,51.0,84,7.87,,,0.00,VWS V13.01,2013-01-19 10:57:00,
2013-01-19 06:02:00,33.2,29.0,30.37,WNW,302,4.6,51.0,84,7.87,,,0.00,VWS V13.01,2013-01-19 11:02:00,
2013-01-19 06:07:00,33.2,29.2,30.36,West,266,6.6,51.0,85,7.87,,,0.00,VWS V13.01,2013-01-19 11:07:00,
2013-01-19 06:12:00,33.4,29.5,30.36,West,277,8.0,51.0,86,7.87,,,0.00,VWS V13.01,2013-01-19 11:12:00,
2013-01-19 07:47:00,34.3,31.9,30.35,West,273,10.4,51.0,91,7.87,,,0.00,VWS V13.01,2013-01-19 12:47:00,
2013-01-19 07:48:00,34.3,31.9,30.35,WNW,297,8.9,51.0,91,7.87,,,0.00,VWS V13.01,2013-01-19 12:48:00,
2013-01-19 07:53:00,34.5,32.1,30.35,WSW,250,9.3,51.0,91,7.87,,,0.00,VWS V13.01,2013-01-19 12:53:00,
2013-01-19 07:58:00,34.8,32.3,30.35,WNW,292,9.6,51.0,90,7.87,,,0.00,VWS V13.01,2013-01-19 12:58:00,
2013-01-19 08:03:00,34.8,32.2,30.35,West,280,9.1,51.0,90,7.87,,,0.00,VWS V13.01,2013-01-19 13:03:00,
2013-01-19 08:08:00,35.1,32.5,30.35,West,274,7.3,51.0,90,7.87,,,0.00,VWS V13.01,2013-01-19 13:08:00,
2013-01-19 08:13:00,35.0,32.3,30.35,NW,304,6.2,51.0,90,7.87,,,0.00,VWS V13.01,2013-01-19 13:13:00,
2013-01-19 08:18:00,35.1,32.4,30.35,NW,308,6.2,51.0,90,7.87,,,0.00,VWS V13.01,2013-01-19 13:18:00,
2013-01-19 08:23:00,35.3,32.6,30.34,WNW,284,8.2,51.0,90,7.87,,,0.00,VWS V13.01,2013-01-19 13:23:00,
2013-01-19 08:28:00,35.5,32.7,30.34,WNW,283,6.9,51.0,89,7.87,,,0.00,VWS V13.01,2013-01-19 13:28:00,
2013-01-19 08:33:00,35.7,32.8,30.35,NW,304,6.2,51.0,89,7.87,,,0.00,VWS V13.01,2013-01-19 13:33:00,
2013-01-19 08:38:00,36.0,33.0,30.35,West,271,5.1,51.0,89,7.87,,,0.00,VWS V13.01,2013-01-19 13:38:00,
2013-01-19 08:43:00,36.7,33.6,30.35,WNW,284,5.0,51.0,88,7.87,,,0.00,VWS V13.01,2013-01-19 13:43:00,
2013-01-19 08:48:00,36.6,33.4,30.35,WSW,252,5.3,51.0,88,7.87,,,0.00,VWS V13.01,2013-01-19 13:48:00,
2013-01-19 08:53:00,36.6,33.3,30.35,WNW,283,5.4,51.0,88,7.87,,,0.00,VWS V13.01,2013-01-19 13:53:00,
2013-01-19 08:58:00,37.1,33.7,30.35,West,264,8.3,51.0,87,7.87,,,0.00,VWS V13.01,2013-01-19 13:58:00,
2013-01-19 09:03:00,37.5,34.0,30.35,WNW,294,5.3,51.0,87,7.87,,,0.00,VWS V13.01,2013-01-19 14:03:00,
2013-01-19 09:08:00,37.6,33.9,30.35,NW,307,11.5,51.0,86,7.87,,,0.00,VWS V13.01,2013-01-19 14:08:00,
2013-01-19 09:13:00,37.9,34.1,30.35,WNW,302,9.3,51.0,86,7.87,,,0.00,VWS V13.01,2013-01-19 14:13:00,
2013-01-19 09:18:00,38.4,34.4,30.35,WNW,283,7.9,51.0,85,7.87,,,0.00,VWS V13.01,2013-01-19 14:18:00,
2013-01-19 09:23:00,38.7,34.5,30.34,West,260,8.9,51.0,85,7.87,,,0.00,VWS V13.01,2013-01-19 14:23:00,
2013-01-19 09:28:00,39.2,34.8,30.34,WNW,298,5.8,51.0,84,7.87,,,0.00,VWS V13.01,2013-01-19 14:28:00,
2013-01-19 09:33:00,39.4,34.8,30.34,NW,308,7.1,51.0,84,7.87,,,0.00,VWS V13.01,2013-01-19 14:33:00,
2013-01-19 09:38:00,39.7,34.9,30.34,West,277,8.0,51.0,83,7.87,,,0.00,VWS V13.01,2013-01-19 14:38:00,
2013-01-19 09:43:00,40.3,35.3,30.34,WSW,255,7.1,51.0,82,7.87,,,0.00,VWS V13.01,2013-01-19 14:43:00,
2013-01-19 09:48:00,40.6,35.5,30.34,West,263,9.6,51.0,82,7.87,,,0.00,VWS V13.01,2013-01-19 14:48:00,
2013-01-19 09:53:00,41.0,35.6,30.34,WSW,242,5.3,51.0,81,7.87,,,0.00,VWS V13.01,2013-01-19 14:53:00,
2013-01-19 09:58:00,41.2,35.7,30.33,WNW,298,7.9,51.0,80,7.87,,,0.00,VWS V13.01,2013-01-19 14:58:00,
2013-01-19 10:03:00,41.7,35.8,30.33,West,269,3.0,51.0,79,7.87,,,0.00,VWS V13.01,2013-01-19 15:03:00,
2013-01-19 10:08:00,42.0,36.0,30.33,WNW,298,9.7,51.0,79,7.87,,,0.00,VWS V13.01,2013-01-19 15:08:00,
2013-01-19 10:13:00,42.2,36.0,30.33,WNW,301,8.6,51.0,78,7.87,,,0.00,VWS V13.01,2013-01-19 15:13:00,
2013-01-19 10:18:00,42.3,35.8,30.32,West,263,10.7,51.0,78,7.87,,,0.00,VWS V13.01,2013-01-19 15:18:00,
2013-01-19 10:23:00,42.7,36.1,30.32,West,267,5.0,51.0,77,7.87,,,0.00,VWS V13.01,2013-01-19 15:23:00,
2013-01-19 10:28:00,43.2,36.4,30.31,West,271,13.5,51.0,77,7.87,,,0.00,VWS V13.01,2013-01-19 15:28:00,
2013-01-19 10:33:00,42.9,36.0,30.31,WNW,297,15.4,51.0,76,7.87,,,0.00,VWS V13.01,2013-01-19 15:33:00,
2013-01-19 10:38:00,43.2,36.3,30.31,West,271,8.1,51.0,76,7.87,,,0.00,VWS V13.01,2013-01-19 15:38:00,
2013-01-19 10:43:00,43.4,36.2,30.31,West,274,7.3,51.0,75,7.87,,,0.00,VWS V13.01,2013-01-19 15:43:00,
2013-01-19 10:48:00,43.7,36.4,30.30,WSW,238,6.3,51.0,75,7.87,,,0.00,VWS V13.01,2013-01-19 15:48:00,
2013-01-19 10:53:00,44.1,36.6,30.29,West,270,3.9,51.0,75,7.87,,,0.00,VWS V13.01,2013-01-19 15:53:00,
2013-01-19 10:58:00,44.9,37.2,30.29,WSW,255,4.1,51.0,74,7.87,,,0.00,VWS V13.01,2013-01-19 15:58:00,
2013-01-19 11:03:00,45.1,37.2,30.28,WNW,290,8.3,51.0,74,7.87,,,0.00,VWS V13.01,2013-01-19 16:03:00,
2013-01-19 11:08:00,45.8,37.6,30.28,WSW,253,6.3,51.0,73,7.87,,,0.00,VWS V13.01,2013-01-19 16:08:00,
2013-01-19 11:13:00,46.0,37.5,30.27,WSW,252,11.9,51.0,72,7.87,,,0.00,VWS V13.01,2013-01-19 16:13:00,
2013-01-19 11:18:00,46.2,37.5,30.27,NW,309,9.8,51.0,72,7.87,,,0.00,VWS V13.01,2013-01-19 16:18:00,
2013-01-19 11:23:00,46.6,37.7,30.26,West,259,8.8,51.0,71,7.87,,,0.00,VWS V13.01,2013-01-19 16:23:00,
2013-01-19 11:28:00,46.7,37.7,30.26,WSW,243,7.8,51.0,71,7.87,,,0.00,VWS V13.01,2013-01-19 16:28:00,
2013-01-19 11:33:00,46.8,37.6,30.25,NW,305,11.0,51.0,70,7.87,,,0.00,VWS V13.01,2013-01-19 16:33:00,
2013-01-19 11:38:00,47.0,37.7,30.25,WNW,297,8.3,51.0,70,7.87,,,0.00,VWS V13.01,2013-01-19 16:38:00,
2013-01-19 11:43:00,47.2,37.3,30.24,WNW,287,7.1,51.0,68,7.87,,,0.00,VWS V13.01,2013-01-19 16:43:00,
2013-01-19 11:48:00,47.5,37.8,30.24,WNW,302,6.8,51.0,69,7.87,,,0.00,VWS V13.01,2013-01-19 16:48:00,
2013-01-19 11:53:00,47.6,37.6,30.24,WSW,248,4.0,51.0,68,7.87,,,0.00,VWS V13.01,2013-01-19 16:53:00,
2013-01-19 11:58:00,48.0,37.9,30.23,NW,311,7.5,51.0,68,7.87,,,0.00,VWS V13.01,2013-01-19 16:58:00,
2013-01-19 12:03:00,47.9,37.7,30.23,WSW,248,7.3,51.0,68,7.87,,,0.00,VWS V13.01,2013-01-19 17:03:00,
2013-01-19 12:08:00,48.3,37.9,30.23,WNW,285,10.4,51.0,67,7.87,,,0.00,VWS V13.01,2013-01-19 17:08:00,
2013-01-19 13:10:00,50.3,38.7,30.19,West,273,6.5,51.0,64,7.87,,,0.00,VWS V13.01,2013-01-19 18:10:00,
2013-01-19 13:15:00,50.2,38.8,30.19,West,260,5.0,51.0,65,7.87,,,0.00,VWS V13.01,2013-01-19 18:15:00,
2013-01-19 13:21:00,50.9,39.1,30.18,West,264,8.3,51.0,64,7.87,,,0.00,VWS V13.01,2013-01-19 18:21:00,
2013-01-19 13:27:00,50.8,38.9,30.18,NW,304,6.5,51.0,64,7.87,,,0.00,VWS V13.01,2013-01-19 18:27:00,
2013-01-19 13:32:00,50.8,38.8,30.18,West,274,1.6,51.0,63,7.87,,,0.00,VWS V13.01,2013-01-19 18:32:00,
2013-01-19 13:37:00,50.8,38.6,30.18,West,266,9.3,51.0,63,7.87,,,0.00,VWS V13.01,2013-01-19 18:37:00,
2013-01-19 13:42:00,51.0,38.8,30.17,West,270,8.1,51.0,63,7.87,,,0.00,VWS V13.01,2013-01-19 18:42:00,
2013-01-19 13:47:00,51.1,39.0,30.17,West,271,9.8,51.0,63,7.87,,,0.00,VWS V13.01,2013-01-19 18:47:00,
2013-01-19 13:52:00,51.2,38.7,30.17,WNW,297,10.2,51.0,62,7.87,,,0.00,VWS V13.01,2013-01-19 18:52:00,
2013-01-19 13:58:00,51.2,38.7,30.17,WNW,285,7.6,51.0,62,7.87,,,0.00,VWS V13.01,2013-01-19 18:58:00,
2013-01-19 14:03:00,51.7,39.2,30.16,West,274,12.6,51.0,62,7.87,,,0.00,VWS V13.01,2013-01-19 19:03:00,
2013-01-19 14:09:00,51.4,38.8,30.16,WNW,292,9.3,51.0,62,7.87,,,0.00,VWS V13.01,2013-01-19 19:09:00,
2013-01-19 14:14:00,51.5,38.9,30.15,West,274,5.6,51.0,62,7.87,,,0.00,VWS V13.01,2013-01-19 19:14:00,
2013-01-19 14:19:00,51.8,39.3,30.15,West,259,3.8,51.0,62,7.87,,,0.00,VWS V13.01,2013-01-19 19:19:00,
2013-01-19 14:25:00,52.0,39.3,30.15,WNW,283,8.0,51.0,62,7.87,,,0.00,VWS V13.01,2013-01-19 19:25:00,
2013-01-19 14:30:00,52.0,39.2,30.15,WNW,285,5.8,51.0,61,7.87,,,0.00,VWS V13.01,2013-01-19 19:30:00,
2013-01-19 14:36:00,52.0,39.2,30.15,NW,305,7.8,51.0,61,7.87,,,0.00,VWS V13.01,2013-01-19 19:36:00,
2013-01-19 14:41:00,52.1,39.3,30.15,West,270,5.2,51.0,62,7.87,,,0.00,VWS V13.01,2013-01-19 19:41:00,
2013-01-19 14:47:00,51.8,38.9,30.15,West,280,8.4,51.0,61,7.87,,,0.00,VWS V13.01,2013-01-19 19:47:00,
2013-01-19 14:52:00,52.0,39.2,30.15,West,264,4.4,51.0,62,7.87,,,0.00,VWS V13.01,2013-01-19 19:52:00,
2013-01-19 14:57:00,52.4,39.7,30.14,West,267,2.9,51.0,62,7.87,,,0.00,VWS V13.01,2013-01-19 19:57:00,
2013-01-19 15:02:00,52.4,39.4,30.14,West,263,6.2,51.0,61,7.87,,,0.00,VWS V13.01,2013-01-19 20:02:00,
2013-01-19 15:08:00,52.4,39.4,30.14,West,269,5.0,51.0,61,7.87,,,0.00,VWS V13.01,2013-01-19 20:08:00,
2013-01-19 15:13:00,52.3,39.5,30.14,SW,228,3.2,51.0,62,7.87,,,0.00,VWS V13.01,2013-01-19 20:13:00,
2013-01-19 15:18:00,52.4,39.4,30.14,West,277,1.2,51.0,61,7.87,,,0.00,VWS V13.01,2013-01-19 20:18:00,
2013-01-19 15:23:00,52.5,39.7,30.14,West,269,3.4,51.0,62,7.87,,,0.00,VWS V13.01,2013-01-19 20:23:00,
2013-01-19 15:28:00,52.4,39.6,30.13,West,280,9.0,51.0,62,7.87,,,0.00,VWS V13.01,2013-01-19 20:28:00,
2013-01-19 15:34:00,52.2,39.2,30.13,West,278,10.3,51.0,61,7.87,,,0.00,VWS V13.01,2013-01-19 20:34:00,
2013-01-19 15:39:00,52.1,39.0,30.13,WNW,302,6.2,51.0,61,7.87,,,0.00,VWS V13.01,2013-01-19 20:39:00,
2013-01-19 15:44:00,52.0,38.8,30.13,West,271,6.9,51.0,61,7.87,,,0.00,VWS V13.01,2013-01-19 20:44:00,
2013-01-19 15:49:00,52.0,38.9,30.13,WSW,249,1.9,51.0,61,7.87,,,0.00,VWS V13.01,2013-01-19 20:49:00,
2013-01-19 15:54:00,51.7,38.8,30.13,WSW,239,2.8,51.0,61,7.87,,,0.00,VWS V13.01,2013-01-19 20:54:00,
2013-01-19 15:59:00,51.8,38.6,30.13,WNW,297,8.9,51.0,61,7.87,,,0.00,VWS V13.01,2013-01-19 20:59:00,
2013-01-19 16:04:00,51.3,38.3,30.13,WNW,284,2.7,51.0,61,7.87,,,0.00,VWS V13.01,2013-01-19 21:04:00,
2013-01-19 16:09:00,51.6,39.8,30.12,West,280,4.8,51.0,64,7.87,,,0.00,VWS V13.01,2013-01-19 21:09:00,
2013-01-19 16:14:00,51.8,39.6,30.12,WNW,283,4.2,51.0,63,7.87,,,0.00,VWS V13.01,2013-01-19 21:14:00,
2013-01-19 16:20:00,51.9,39.4,30.12,West,260,1.7,51.0,62,7.87,,,0.00,VWS V13.01,2013-01-19 21:20:00,
2013-01-19 16:25:00,51.2,38.8,30.12,WNW,287,4.9,51.0,62,7.87,,,0.00,VWS V13.01,2013-01-19 21:25:00,
2013-01-19 16:30:00,51.1,38.9,30.12,WSW,252,3.2,51.0,63,7.87,,,0.00,VWS V13.01,2013-01-19 21:30:00,
2013-01-19 16:35:00,50.6,38.8,30.12,West,269,0.0,51.0,64,7.87,,,0.00,VWS V13.01,2013-01-19 21:35:00,
2013-01-19 16:43:00,50.0,38.4,30.11,West,274,5.2,51.0,64,7.87,,,0.00,VWS V13.01,2013-01-19 21:43:00,
2013-01-19 16:48:00,49.8,38.4,30.11,WNW,292,4.2,51.0,65,7.87,,,0.00,VWS V13.01,2013-01-19 21:48:00,
2013-01-19 16:53:00,49.6,38.5,30.11,West,270,0.0,51.0,65,7.87,,,0.00,VWS V13.01,2013-01-19 21:53:00,
2013-01-19 16:58:00,49.4,38.4,30.11,WSW,256,0.0,51.0,66,7.87,,,0.00,VWS V13.01,2013-01-19 21:58:00,
2013-01-19 17:04:00,49.2,38.4,30.11,West,276,4.0,51.0,66,7.87,,,0.00,VWS V13.01,2013-01-19 22:04:00,
2013-01-19 17:09:00,48.9,38.2,30.11,WNW,295,0.0,51.0,66,7.87,,,0.00,VWS V13.01,2013-01-19 22:09:00,
2013-01-19 17:14:00,48.8,38.3,30.11,SW,217,0.7,51.0,67,7.87,,,0.00,VWS V13.01,2013-01-19 22:14:00,
2013-01-19 17:19:00,48.5,38.0,30.11,WNW,291,3.9,51.0,67,7.87,,,0.00,VWS V13.01,2013-01-19 22:19:00,
2013-01-19 17:24:00,48.5,38.2,30.11,West,274,6.0,51.0,67,7.87,,,0.00,VWS V13.01,2013-01-19 22:24:00,
2013-01-19 17:29:00,48.3,38.1,30.11,NW,319,0.0,51.0,68,7.87,,,0.00,VWS V13.01,2013-01-19 22:29:00,
2013-01-19 17:34:00,48.1,38.0,30.11,West,263,6.1,51.0,68,7.87,,,0.00,VWS V13.01,2013-01-19 22:34:00,
2013-01-19 17:39:00,48.1,38.0,30.11,West,264,4.8,51.0,68,7.87,,,0.00,VWS V13.01,2013-01-19 22:39:00,
2013-01-19 17:44:00,48.0,37.9,30.11,WSW,245,2.4,51.0,68,7.87,,,0.00,VWS V13.01,2013-01-19 22:44:00,
2013-01-19 17:50:00,47.8,37.8,30.11,WSW,250,1.5,51.0,68,7.87,,,0.00,VWS V13.01,2013-01-19 22:50:00,
2013-01-19 17:55:00,47.5,37.7,30.11,WNW,295,5.3,51.0,69,7.87,,,0.00,VWS V13.01,2013-01-19 22:55:00,
2013-01-19 18:00:00,47.4,37.8,30.11,WSW,255,1.8,51.0,69,7.87,,,0.00,VWS V13.01,2013-01-19 23:00:00,
2013-01-19 18:05:00,47.0,37.5,30.11,WNW,294,3.4,51.0,70,7.87,,,0.00,VWS V13.01,2013-01-19 23:05:00,
2013-01-19 18:11:00,47.0,37.7,30.11,West,260,2.7,51.0,70,7.87,,,0.00,VWS V13.01,2013-01-19 23:11:00,
2013-01-19 18:16:00,46.6,37.4,30.11,SW,214,0.0,51.0,70,7.87,,,0.00,VWS V13.01,2013-01-19 23:16:00,
2013-01-19 18:22:00,46.9,37.8,30.11,WSW,253,1.9,51.0,70,7.87,,,0.00,VWS V13.01,2013-01-19 23:22:00,
2013-01-19 18:27:00,46.3,37.3,30.10,SW,215,0.0,51.0,71,7.87,,,0.00,VWS V13.01,2013-01-19 23:27:00,
2013-01-19 18:32:00,46.2,37.3,30.10,West,263,2.1,51.0,71,7.87,,,0.00,VWS V13.01,2013-01-19 23:32:00,
2013-01-19 18:36:00,46.1,37.2,30.10,WNW,298,3.9,51.0,71,7.87,,,0.00,VWS V13.01,2013-01-19 23:36:00,
2013-01-19 18:42:00,46.2,37.4,30.10,NW,315,0.0,51.0,71,7.87,,,0.00,VWS V13.01,2013-01-19 23:42:00,
2013-01-19 18:47:00,46.0,37.2,30.10,WNW,288,1.7,51.0,71,7.87,,,0.00,VWS V13.01,2013-01-19 23:47:00,
2013-01-19 18:52:00,45.8,37.1,30.10,WNW,295,3.2,51.0,72,7.87,,,0.00,VWS V13.01,2013-01-19 23:52:00,
2013-01-19 18:57:00,45.7,37.1,30.10,WNW,283,0.0,51.0,72,7.87,,,0.00,VWS V13.01,2013-01-19 23:57:00,
2013-01-19 19:03:00,45.7,37.1,30.10,WNW,287,3.0,51.0,72,7.87,,,0.00,VWS V13.01,2013-01-20 00:03:00,
2013-01-19 19:08:00,45.6,37.1,30.10,West,266,5.2,51.0,72,7.87,,,0.00,VWS V13.01,2013-01-20 00:08:00,
2013-01-19 19:13:00,45.7,37.2,30.10,WSW,253,4.6,51.0,72,7.87,,,0.00,VWS V13.01,2013-01-20 00:13:00,
2013-01-19 19:18:00,45.5,37.0,30.10,WSW,240,5.9,51.0,72,7.87,,,0.00,VWS V13.01,2013-01-20 00:18:00,
2013-01-19 19:23:00,45.6,37.1,30.10,West,273,2.1,51.0,72,7.87,,,0.00,VWS V13.01,2013-01-20 00:23:00,
2013-01-19 19:28:00,45.3,37.0,30.10,WSW,252,5.5,51.0,72,7.87,,,0.00,VWS V13.01,2013-01-20 00:28:00,
2013-01-19 19:33:00,44.9,36.6,30.10,SW,236,5.8,51.0,72,7.87,,,0.00,VWS V13.01,2013-01-20 00:33:00,
2013-01-19 19:39:00,45.0,36.6,30.10,SSW,201,2.0,51.0,72,7.87,,,0.00,VWS V13.01,2013-01-20 00:39:00,
2013-01-19 19:44:00,45.1,36.7,30.10,WSW,242,8.0,51.0,72,7.87,,,0.00,VWS V13.01,2013-01-20 00:44:00,
2013-01-19 19:49:00,44.9,36.4,30.09,West,277,4.6,51.0,72,7.87,,,0.00,VWS V13.01,2013-01-20 00:49:00,
2013-01-19 19:54:00,45.2,36.8,30.09,NW,304,4.8,51.0,72,7.87,,,0.00,VWS V13.01,2013-01-20 00:54:00,
2013-01-19 19:59:00,44.8,36.5,30.09,West,278,2.9,51.0,73,7.87,,,0.00,VWS V13.01,2013-01-20 00:59:00,
2013-01-19 20:04:00,44.6,36.6,30.09,NW,309,7.0,51.0,73,7.87,,,0.00,VWS V13.01,2013-01-20 01:04:00,
2013-01-19 20:09:00,44.6,36.7,30.08,West,273,9.7,51.0,74,7.87,,,0.00,VWS V13.01,2013-01-20 01:09:00,
2013-01-19 20:14:00,44.5,36.8,30.08,WNW,294,2.5,51.0,74,7.87,,,0.00,VWS V13.01,2013-01-20 01:14:00,
2013-01-19 20:19:00,44.1,36.5,30.08,WNW,290,3.7,51.0,74,7.87,,,0.00,VWS V13.01,2013-01-20 01:19:00,
2013-01-19 20:25:00,44.3,36.8,30.08,WNW,294,4.6,51.0,75,7.87,,,0.00,VWS V13.01,2013-01-20 01:25:00,
2013-01-19 20:30:00,44.2,37.0,30.07,WSW,243,3.6,51.0,76,7.87,,,0.00,VWS V13.01,2013-01-20 01:30:00,
2013-01-19 20:35:00,44.0,37.0,30.07,SSW,210,3.6,51.0,76,7.87,,,0.00,VWS V13.01,2013-01-20 01:35:00,
2013-01-19 20:40:00,43.9,37.2,30.07,West,280,6.5,51.0,77,7.87,,,0.00,VWS V13.01,2013-01-20 01:40:00,
2013-01-19 20:45:00,43.6,37.2,30.07,SW,215,1.6,51.0,78,7.87,,,0.00,VWS V13.01,2013-01-20 01:45:00,
2013-01-19 20:51:00,43.5,37.4,30.07,West,271,3.7,51.0,79,7.87,,,0.00,VWS V13.01,2013-01-20 01:51:00,
2013-01-19 20:56:00,43.6,37.7,30.07,West,259,0.0,51.0,80,7.87,,,0.00,VWS V13.01,2013-01-20 01:56:00,
2013-01-19 21:01:00,43.2,37.5,30.07,West,276,3.7,51.0,80,7.87,,,0.00,VWS V13.01,2013-01-20 02:01:00,
2013-01-19 21:07:00,43.2,37.7,30.07,WNW,283,2.9,51.0,81,7.87,,,0.00,VWS V13.01,2013-01-20 02:07:00,
2013-01-19 21:12:00,42.7,37.3,30.06,WSW,248,3.0,51.0,81,7.87,,,0.00,VWS V13.01,2013-01-20 02:12:00,
2013-01-19 21:17:00,42.6,37.2,30.06,WSW,253,5.6,51.0,81,7.87,,,0.00,VWS V13.01,2013-01-20 02:17:00,
2013-01-19 21:22:00,42.5,37.0,30.06,West,281,2.0,51.0,81,7.87,,,0.00,VWS V13.01,2013-01-20 02:22:00,
2013-01-19 21:28:00,42.5,36.9,30.06,SW,236,3.7,51.0,80,7.87,,,0.00,VWS V13.01,2013-01-20 02:28:00,
2013-01-19 21:33:00,42.8,37.1,30.05,West,260,4.1,51.0,80,7.87,,,0.00,VWS V13.01,2013-01-20 02:33:00,
2013-01-19 21:38:00,42.5,36.7,30.05,NW,311,9.4,51.0,80,7.87,,,0.00,VWS V13.01,2013-01-20 02:38:00,
2013-01-19 21:43:00,42.4,36.6,30.05,WNW,285,8.1,51.0,80,7.87,,,0.00,VWS V13.01,2013-01-20 02:43:00,
2013-01-19 21:48:00,42.5,36.7,30.05,WSW,256,6.9,51.0,80,7.87,,,0.00,VWS V13.01,2013-01-20 02:48:00,
2013-01-19 21:53:00,42.1,36.3,30.05,WSW,246,5.7,51.0,80,7.87,,,0.00,VWS V13.01,2013-01-20 02:53:00,
2013-01-19 21:59:00,42.2,36.5,30.04,West,260,6.8,51.0,80,7.87,,,0.00,VWS V13.01,2013-01-20 02:59:00,
2013-01-19 22:04:00,42.2,36.5,30.04,SW,215,2.2,51.0,80,7.87,,,0.00,VWS V13.01,2013-01-20 03:04:00,
2013-01-19 22:09:00,42.0,36.3,30.04,SW,235,0.0,51.0,80,7.87,,,0.00,VWS V13.01,2013-01-20 03:09:00,
2013-01-19 22:14:00,42.0,36.3,30.04,West,269,7.3,51.0,80,7.87,,,0.00,VWS V13.01,2013-01-20 03:14:00,
2013-01-19 22:19:00,42.1,36.5,30.04,WNW,288,1.4,51.0,80,7.87,,,0.00,VWS V13.01,2013-01-20 03:19:00,
2013-01-19 22:24:00,41.9,36.3,30.04,WSW,256,1.6,51.0,80,7.87,,,0.00,VWS V13.01,2013-01-20 03:24:00,
2013-01-19 22:30:00,42.0,36.4,30.03,WNW,297,6.7,51.0,80,7.87,,,0.00,VWS V13.01,2013-01-20 03:30:00,
2013-01-19 22:35:00,41.9,36.3,30.03,WNW,294,0.2,51.0,80,7.87,,,0.00,VWS V13.01,2013-01-20 03:35:00,
2013-01-19 22:40:00,42.0,36.5,30.03,WSW,256,6.6,51.0,81,7.87,,,0.00,VWS V13.01,2013-01-20 03:40:00,
2013-01-19 22:45:00,41.8,36.3,30.03,NW,316,4.1,51.0,81,7.87,,,0.00,VWS V13.01,2013-01-20 03:45:00,
2013-01-19 22:50:00,41.6,36.2,30.02,SSE,152,0.9,51.0,81,7.87,,,0.00,VWS V13.01,2013-01-20 03:50:00,
2013-01-19 22:55:00,41.8,36.5,30.02,WNW,285,4.7,51.0,81,7.87,,,0.00,VWS V13.01,2013-01-20 03:55:00,
2013-01-19 23:01:00,41.7,36.4,30.02,West,278,7.3,51.0,81,7.87,,,0.00,VWS V13.01,2013-01-20 04:01:00,
2013-01-19 23:05:00,41.7,36.5,30.01,WSW,248,3.9,51.0,82,7.87,,,0.00,VWS V13.01,2013-01-20 04:05:00,
2013-01-19 23:11:00,41.7,36.6,30.01,West,273,1.9,51.0,82,7.87,,,0.00,VWS V13.01,2013-01-20 04:11:00,
2013-01-19 23:16:00,41.5,36.5,30.01,WSW,246,4.3,51.0,82,7.87,,,0.00,VWS V13.01,2013-01-20 04:16:00,
2013-01-19 23:21:00,41.6,36.5,30.01,West,260,3.0,51.0,82,7.87,,,0.00,VWS V13.01,2013-01-20 04:21:00,
2013-01-19 23:26:00,41.5,36.5,30.00,West,267,4.2,51.0,82,7.87,,,0.00,VWS V13.01,2013-01-20 04:26:00,
2013-01-19 23:31:00,41.6,36.6,30.00,West,278,1.1,51.0,82,7.87,,,0.00,VWS V13.01,2013-01-20 04:31:00,
2013-01-19 23:37:00,41.5,36.5,30.00,WNW,287,7.0,51.0,82,7.87,,,0.00,VWS V13.01,2013-01-20 04:37:00,
2013-01-19 23:42:00,41.4,36.5,29.99,WSW,249,4.2,51.0,82,7.87,,,0.00,VWS V13.01,2013-01-20 04:42:00,
2013-01-19 23:47:00,41.3,36.4,29.99,WSW,256,5.6,51.0,83,7.87,,,0.00,VWS V13.01,2013-01-20 04:47:00,
2013-01-19 23:53:00,41.4,36.5,29.98,WSW,243,1.5,51.0,83,7.87,,,0.00,VWS V13.01,2013-01-20 04:53:00,
2013-01-19 23:58:00,41.2,36.3,29.98,WNW,285,6.7,51.0,83,7.87,,,0.00,VWS V13.01,2013-01-20 04:58:00,